カタログに戻る

FENGYUN 1C DEB

運用中PO
NORAD 31097·DEBRIS·🇨🇳 China

打ち上げ May 10, 1999 から Taiyuan Satellite Launch Center

Loading…

次のパス (今後24時間)

TLE

最新Source: Space-Track

元期: Sep 14, 2026, 03:45 UTC

1 31097U 99025BGT 26257.15652441  .00005630  00000-0  14047-2 0  9997
2 31097  98.8706  39.0804 0015584 158.9225 254.2511 14.51941799 10280

AllMySatでFENGYUN 1C DEBをリアルタイム追跡

Download on the App Store